DW8622 Weather Reports


Display with metric or nautical units.
time (UTC)temp
F
wind
direction
speed
MPH
gust
MPH
rain 1hr
in
rain 24hr
in
rain mn
in
humidity
%
barometer
mb
20260502164005 73 0 0.0 0.0 0.00 0.00 0.00 52 1014.2
20260502163505 73 0 0.0 0.0 0.00 0.00 0.00 50 1014.2
20260502163005 73 287 1.0 6.0 0.00 0.00 0.00 51 1014.3
20260502162007 73 299 1.0 6.0 0.00 0.00 0.00 51 1014.4
20260502161505 74 287 1.0 7.0 0.00 0.00 0.00 51 1014.5
20260502161006 74 280 1.0 8.0 0.00 0.00 0.00 53 1014.5
20260502160505 74 283 1.0 8.0 0.00 0.00 0.00 52 1014.6
20260502152005 75 0 0.0 0.0 0.00 0.00 0.00 49 1015.0
20260502151505 75 0 0.0 0.0 0.00 0.00 0.00 50 1015.1
20260502151005 75 0 0.0 0.0 0.00 0.00 0.00 49 1015.1
20260502150506 76 270 1.0 7.0 0.00 0.00 0.00 50 1015.2
20260502130506 73 264 5.0 11.0 0.00 0.00 0.00 62 1016.7
20260502123505 71 216 3.0 9.0 0.00 0.00 0.00 66 1016.7
20260502123006 72 246 4.0 11.0 0.00 0.00 0.00 65 1016.9
20260502122505 72 257 4.0 11.0 0.00 0.00 0.00 64 1016.9
20260502122005 71 255 6.0 13.0 0.00 0.00 0.00 65 1017.0
20260502121505 71 260 7.0 13.0 0.00 0.00 0.00 66 1017.1
20260502121005 72 261 6.0 13.0 0.00 0.00 0.00 65 1017.1
20260502120505 71 257 5.0 13.0 0.00 0.00 0.00 68 1017.2
20260502115506 71 231 5.0 12.0 0.00 0.00 0.00 68 1017.2
20260502114505 71 233 5.0 13.0 0.00 0.00 0.00 66 1017.3
20260502113506 70 255 5.0 11.0 0.00 0.00 0.00 68 1017.3
20260502113005 70 245 4.0 11.0 0.00 0.00 0.00 68 1017.5
20260502112505 70 246 4.0 10.0 0.00 0.00 0.00 70 1017.5
20260502112005 69 251 4.0 12.0 0.00 0.00 0.00 69 1017.5
20260502111505 70 253 5.0 12.0 0.00 0.00 0.00 68 1017.5
20260502111006 70 252 4.0 9.0 0.00 0.00 0.00 69 1017.5
20260502105005 69 219 5.0 11.0 0.00 0.00 0.00 71 1017.6
20260502104505 69 221 4.0 11.0 0.00 0.00 0.00 70 1017.7
20260502104005 69 227 4.0 11.0 0.00 0.00 0.00 70 1017.8
20260502103007 69 252 3.0 10.0 0.00 0.00 0.00 73 1017.7
20260502102507 68 232 4.0 10.0 0.00 0.00 0.00 73 1017.8
20260502102005 68 232 4.0 11.0 0.00 0.00 0.00 72 1017.8
20260502101505 68 236 4.0 11.0 0.00 0.00 0.00 72 1017.9
20260502100505 70 209 4.0 11.0 0.00 0.00 0.00 68 1017.9
20260502091505 69 238 3.0 10.0 0.00 0.00 0.00 71 1018.1
20260502091005 68 244 3.0 10.0 0.00 0.00 0.00 73 1018.1
20260502090505 68 229 2.0 8.0 0.00 0.00 0.00 74 1018.1
20260502071505 59 0 0.0 0.0 0.00 0.00 0.00 87 1017.6
20260502071005 59 0 0.0 0.0 0.00 0.00 0.00 87 1017.7
20260502070506 59 0 0.0 0.0 0.00 0.00 0.00 88 1017.7
20260502070006 59 154 0.0 1.0 0.00 0.00 0.00 88 1017.7
20260502065505 58 154 0.0 1.0 0.00 0.00 0.00 87 1017.6
20260502065006 58 0 0.0 0.0 0.00 0.00 0.00 86 1017.8
20260502064505 58 0 0.0 0.0 0.00 0.00 0.00 85 1017.9
20260502064005 58 0 0.0 0.0 0.00 0.00 0.00 84 1018.0
20260502063505 58 0 0.0 0.0 0.00 0.00 0.00 82 1018.0
20260502063005 59 0 0.0 0.0 0.00 0.00 0.00 80 1018.1
20260502062506 58 0 0.0 0.0 0.00 0.00 0.00 78 1018.1
20260502062007 58 0 0.0 0.0 0.00 0.00 0.00 76 1018.2
20260502061005 57 0 0.0 0.0 0.00 0.00 0.00 74 1018.2
20260502060505 56 0 0.0 0.0 0.00 0.00 0.00 73 1018.2
20260502060005 56 0 0.0 0.0 0.00 0.00 0.00 76 1018.2
20260502055506 56 0 0.0 0.0 0.00 0.00 0.00 82 1018.0
20260502055005 55 0 0.0 0.0 0.00 0.00 0.00 79 1018.0
20260502054506 55 0 0.0 0.0 0.00 0.00 0.00 76 1018.0
20260502054006 55 0 0.0 0.0 0.00 0.00 0.00 74 1018.0
20260502053505 55 0 0.0 0.0 0.00 0.00 0.00 72 1018.0
20260502053006 55 0 0.0 0.0 0.00 0.00 0.00 73 1018.0
20260502052505 55 0 0.0 0.0 0.00 0.00 0.00 74 1018.0
20260502052005 54 0 0.0 0.0 0.00 0.00 0.00 74 1018.0
20260502051506 53 0 0.0 0.0 0.00 0.00 0.00 77 1017.9
20260502051006 53 0 0.0 0.0 0.00 0.00 0.00 77 1017.8
20260502050505 53 0 0.0 0.0 0.00 0.00 0.00 75 1017.8
20260502050005 53 0 0.0 0.0 0.00 0.00 0.00 75 1017.9
20260502045505 53 0 0.0 0.0 0.00 0.00 0.00 74 1017.9
20260502044505 54 221 0.0 2.0 0.00 0.00 0.00 73 1018.0
20260502044006 53 221 0.0 2.0 0.00 0.00 0.00 72 1018.0
20260502043505 52 0 0.0 0.0 0.00 0.00 0.00 76 1018.1
20260502042505 52 0 0.0 0.0 0.00 0.00 0.00 78 1017.7
20260502042005 52 0 0.0 0.0 0.00 0.00 0.00 76 1017.7
20260502041506 52 0 0.0 0.0 0.00 0.00 0.00 76 1017.7
20260502041006 52 276 0.0 6.0 0.00 0.00 0.00 75 1017.7
20260502040505 52 276 0.0 6.0 0.00 0.00 0.00 75 1017.7
20260502040005 52 0 0.0 0.0 0.00 0.00 0.00 74 1017.8
20260502035005 52 271 0.0 3.0 0.00 0.00 0.00 74 1017.9
20260502034506 52 144 1.0 6.0 0.00 0.00 0.00 73 1018.0
20260502034006 51 154 1.0 6.0 0.00 0.00 0.00 74 1017.8
20260502033505 51 166 1.0 4.0 0.00 0.00 0.00 75 1017.9
20260502033006 51 183 1.0 3.0 0.00 0.00 0.00 75 1017.8
20260502032506 51 168 1.0 5.0 0.00 0.00 0.00 75 1017.9
20260502032005 51 149 1.0 7.0 0.00 0.00 0.00 75 1017.9
20260502031505 50 155 1.0 7.0 0.00 0.00 0.00 78 1017.9
20260502031006 49 164 0.0 4.0 0.00 0.00 0.00 82 1018.1
20260502030505 48 0 0.0 0.0 0.00 0.00 0.00 84 1018.0
20260502025005 48 0 0.0 0.0 0.00 0.00 0.00 84 1018.1
20260502024505 48 0 0.0 0.0 0.00 0.00 0.00 85 1018.0
20260502024006 48 0 0.0 0.0 0.00 0.00 0.00 85 1018.1
20260502023506 48 0 0.0 0.0 0.00 0.00 0.00 85 1018.2
20260502023007 48 0 0.0 0.0 0.00 0.00 0.00 85 1018.3
20260502022506 48 0 0.0 0.0 0.00 0.00 0.00 84 1018.3
20260502022005 48 0 0.0 0.0 0.00 0.00 0.00 85 1018.3
20260502021005 48 0 0.0 0.0 0.00 0.00 0.00 85 1018.3
20260502020005 48 0 0.0 0.0 0.00 0.00 0.00 85 1018.4
20260502015005 48 0 0.0 0.0 0.00 0.00 0.00 86 1018.5
20260502014505 48 0 0.0 0.0 0.00 0.00 0.00 86 1018.6
20260502014006 48 0 0.0 0.0 0.00 0.00 0.00 85 1018.6
20260502013005 48 0 0.0 0.0 0.00 0.00 0.00 87 1018.5
20260502012505 48 0 0.0 0.0 0.00 0.00 0.00 87 1018.6
20260502011005 48 0 0.0 0.0 0.00 0.00 0.00 86 1018.7
20260502010505 48 0 0.0 0.0 0.00 0.00 0.00 86 1018.7
20260502010006 48 0 0.0 0.0 0.00 0.00 0.00 86 1018.8
20260502005506 48 0 0.0 0.0 0.00 0.00 0.00 85 1018.7
20260502005006 48 0 0.0 0.0 0.00 0.00 0.00 86 1018.8
20260502004506 49 0 0.0 0.0 0.00 0.00 0.00 86 1018.9
20260502003006 49 0 0.0 0.0 0.00 0.00 0.00 86 1019.0
20260502002505 49 0 0.0 0.0 0.00 0.00 0.00 86 1019.0
20260502001505 49 0 0.0 0.0 0.00 0.00 0.00 86 1019.1
20260502001005 49 0 0.0 0.0 0.00 0.00 0.00 85 1019.1
20260502000505 49 0 0.0 0.0 0.00 0.00 0.00 84 1019.1
20260502000006 50 0 0.0 0.0 0.00 0.00 0.00 85 1019.1
20260501235505 50 0 0.0 0.0 0.00 0.00 0.00 84 1019.3
20260501235006 50 0 0.0 0.0 0.00 0.00 0.00 84 1019.3
20260501234505 50 0 0.0 0.0 0.00 0.00 0.00 83 1019.3
20260501234005 50 0 0.0 0.0 0.00 0.00 0.00 83 1019.4
20260501233505 51 0 0.0 0.0 0.00 0.00 0.00 82 1019.4
20260501233006 51 0 0.0 0.0 0.00 0.00 0.00 82 1019.4
20260501231505 51 0 0.0 0.0 0.00 0.00 0.00 79 1019.5
20260501231005 51 0 0.0 0.0 0.00 0.00 0.00 80 1019.6
20260501230005 52 0 0.0 0.0 0.00 0.00 0.00 80 1019.6
20260501225505 52 0 0.0 0.0 0.00 0.00 0.00 80 1019.6
20260501225005 52 0 0.0 0.0 0.00 0.00 0.00 80 1019.6
20260501224505 52 0 0.0 0.0 0.00 0.00 0.00 79 1019.7
20260501224005 52 0 0.0 0.0 0.00 0.00 0.00 79 1019.7
20260501223506 52 0 0.0 0.0 0.00 0.00 0.00 79 1019.8
20260501223005 52 0 0.0 0.0 0.00 0.00 0.00 79 1019.8
20260501222505 53 0 0.0 0.0 0.00 0.00 0.00 78 1019.8
20260501222006 53 0 0.0 0.0 0.00 0.00 0.00 77 1019.8
20260501221505 53 0 0.0 0.0 0.00 0.00 0.00 76 1019.8
20260501221006 53 0 0.0 0.0 0.00 0.00 0.00 75 1019.8
20260501220505 54 0 0.0 0.0 0.00 0.00 0.00 75 1019.8
20260501220006 54 0 0.0 0.0 0.00 0.00 0.00 74 1019.8
20260501215006 55 0 0.0 0.0 0.00 0.00 0.00 73 1019.9
20260501213506 55 0 0.0 0.0 0.00 0.00 0.00 71 1019.9
20260501213005 55 0 0.0 0.0 0.00 0.00 0.00 71 1019.9
20260501212505 55 0 0.0 0.0 0.00 0.00 0.00 72 1020.0
20260501212005 56 0 0.0 0.0 0.00 0.00 0.00 71 1020.0
20260501211505 56 0 0.0 0.0 0.00 0.00 0.00 71 1020.0
20260501211005 56 0 0.0 0.0 0.00 0.00 0.00 71 1020.0
20260501210505 56 0 0.0 0.0 0.00 0.00 0.00 72 1020.0
20260501210006 56 0 0.0 0.0 0.00 0.00 0.00 71 1020.0
20260501205506 56 0 0.0 0.0 0.00 0.00 0.00 72 1020.0
20260501205006 57 0 0.0 0.0 0.00 0.00 0.00 73 1020.1
20260501204505 57 0 0.0 0.0 0.00 0.00 0.00 71 1020.1
20260501204005 57 0 0.0 0.0 0.00 0.00 0.00 68 1020.1
20260501203506 57 0 0.0 0.0 0.00 0.00 0.00 69 1020.1
20260501203005 58 0 0.0 0.0 0.00 0.00 0.00 70 1020.1
20260501202505 58 0 0.0 0.0 0.00 0.00 0.00 70 1020.1
20260501201006 59 0 0.0 0.0 0.00 0.00 0.00 67 1020.1
20260501200506 59 0 0.0 0.0 0.00 0.00 0.00 67 1020.1
20260501200006 60 0 0.0 0.0 0.00 0.00 0.00 65 1020.1
20260501195505 60 0 0.0 0.0 0.00 0.00 0.00 64 1020.2
20260501195005 61 0 0.0 0.0 0.00 0.00 0.00 62 1020.1
20260501194506 62 0 0.0 0.0 0.00 0.00 0.00 61 1020.1
20260501194005 61 0 0.0 0.0 0.00 0.00 0.00 62 1020.1
20260501193505 61 0 0.0 0.0 0.00 0.00 0.00 64 1020.1
20260501193005 61 0 0.0 0.0 0.00 0.00 0.00 64 1020.0
20260501192505 61 0 0.0 0.0 0.00 0.00 0.00 65 1020.0
20260501192005 62 0 0.0 0.0 0.00 0.00 0.00 64 1020.0
20260501191505 62 0 0.0 0.0 0.00 0.00 0.00 63 1020.0
20260501191005 63 0 0.0 0.0 0.00 0.00 0.00 62 1019.9
20260501190505 63 0 0.0 0.0 0.00 0.00 0.00 63 1020.0
20260501190005 64 0 0.0 0.0 0.00 0.00 0.00 62 1019.9
20260501185005 65 0 0.0 0.0 0.00 0.00 0.00 63 1019.9
20260501184005 66 0 0.0 0.0 0.00 0.00 0.00 63 1019.9
20260501183006 67 0 0.0 0.0 0.00 0.00 0.00 61 1019.8
20260501181520 69 0 0.0 0.0 0.00 0.00 0.00 58 1019.9
20260501181006 69 0 0.0 0.0 0.00 0.00 0.00 57 1020.0
20260501180505 70 0 0.0 0.0 0.00 0.00 0.00 56 1019.9
20260501180005 71 0 0.0 0.0 0.00 0.00 0.00 53 1019.9